• In Romania
  • List of Countries
  • For 7 days
  • Water Temperature
  • Satellite Maps
  • Weather Map
  • Weather Widgets
  • user-avatar
    Login

    Hourly Weather Mazyr

    Today, 16 December, Saturday

    Time Temperature Precipitation Wind Pressure Humidity
    00:00 0°C° 0 mm 4 mps 738 mmHg 93%
    01:00 0°C° 0 mm 4 mps 738 mmHg 94%
    02:00 0°C° 0 mm 3 mps 738 mmHg 95%
    03:00 0°C° 0.1 mm 3 mps 738 mmHg 95%
    04:00 0°C° 0.1 mm 3 mps 737 mmHg 96%
    05:00 +1°C° 0.1 mm 2 mps 737 mmHg 96%
    06:00 0°C° 0.6 mm 3 mps 736 mmHg 96%
    07:00 0°C° 0.6 mm 3 mps 736 mmHg 96%
    08:00 0°C° 0.6 mm 3 mps 735 mmHg 96%
    09:00 +1°C° 0.5 mm 3 mps 735 mmHg 96%
    10:00 0°C° 0.5 mm 4 mps 734 mmHg 95%
    11:00 +1°C° 0.5 mm 4 mps 733 mmHg 95%
    12:00 +1°C° 1 mm 4 mps 732 mmHg 95%
    13:00 +3°C° 1 mm 4 mps 731 mmHg 95%
    14:00 +4°C° 1 mm 4 mps 731 mmHg 95%
    15:00 +3°C° 0.4 mm 4 mps 731 mmHg 94%
    16:00 +3°C° 0.4 mm 4 mps 731 mmHg 94%
    17:00 +3°C° 0.4 mm 4 mps 731 mmHg 93%
    18:00 +2°C° 0.1 mm 5 mps 732 mmHg 92%
    19:00 +1°C° 0.1 mm 5 mps 733 mmHg 90%
    20:00 0°C° 0.1 mm 5 mps 734 mmHg 89%
    21:00 0°C° 0 mm 5 mps 735 mmHg 88%
    22:00 0°C° 0 mm 5 mps 737 mmHg 88%
    23:00 0°C° 0 mm 5 mps 738 mmHg 87%

    Tomorrow, 17 December, Sunday

    Time Temperature Precipitation Wind Pressure Humidity
    00:00 -1°C° 0 mm 5 mps 739 mmHg 87%
    01:00 -1°C° 0 mm 5 mps 740 mmHg 87%
    02:00 -1°C° 0 mm 4 mps 741 mmHg 87%
    03:00 -2°C° 0 mm 4 mps 742 mmHg 88%
    04:00 -2°C° 0 mm 4 mps 742 mmHg 89%
    05:00 -2°C° 0 mm 3 mps 743 mmHg 90%
    06:00 -2°C° 0 mm 3 mps 743 mmHg 91%
    07:00 -2°C° 0 mm 3 mps 744 mmHg 92%
    08:00 -3°C° 0 mm 2 mps 745 mmHg 93%
    09:00 -2°C° 0 mm 2 mps 745 mmHg 91%
    10:00 -2°C° 0 mm 2 mps 746 mmHg 89%
    11:00 -1°C° 0 mm 2 mps 746 mmHg 86%
    12:00 -1°C° 0 mm 2 mps 746 mmHg 85%
    13:00 -1°C° 0 mm 2 mps 747 mmHg 84%
    14:00 -1°C° 0 mm 2 mps 747 mmHg 83%
    15:00 +1°C° 0 mm 1 mps 747 mmHg 85%
    16:00 0°C° 0 mm 1 mps 747 mmHg 87%
    17:00 0°C° 0 mm 1 mps 747 mmHg 89%
    18:00 0°C° 0 mm 1 mps 748 mmHg 89%
    19:00 0°C° 0 mm 1 mps 748 mmHg 88%
    20:00 0°C° 0 mm 1 mps 748 mmHg 88%
    21:00 0°C° 0 mm 1 mps 749 mmHg 88%
    22:00 0°C° 0 mm 1 mps 749 mmHg 88%
    23:00 0°C° 0 mm 1 mps 749 mmHg 88%

    Day after tomorrow, 18 December, Monday

    Time Temperature Precipitation Wind Pressure Humidity
    00:00 -2°C° 0 mm 2 mps 749 mmHg 87%
    01:00 -2°C° 0 mm 2 mps 749 mmHg 86%
    02:00 -2°C° 0 mm 2 mps 749 mmHg 86%
    03:00 -2°C° 0 mm 2 mps 749 mmHg 86%
    04:00 -2°C° 0 mm 2 mps 749 mmHg 86%
    05:00 -2°C° 0 mm 2 mps 749 mmHg 86%
    06:00 -2°C° 0 mm 2 mps 749 mmHg 87%
    07:00 -3°C° 0 mm 2 mps 750 mmHg 87%
    08:00 -3°C° 0 mm 2 mps 750 mmHg 88%
    09:00 -4°C° 0 mm 3 mps 750 mmHg 87%
    10:00 -4°C° 0 mm 3 mps 750 mmHg 86%
    11:00 -2°C° 0 mm 3 mps 750 mmHg 85%
    12:00 -2°C° 0 mm 3 mps 750 mmHg 84%
    13:00 -3°C° 0 mm 4 mps 750 mmHg 83%
    14:00 -3°C° 0 mm 4 mps 750 mmHg 82%
    15:00 -4°C° 0 mm 4 mps 750 mmHg 83%
    16:00 -4°C° 0 mm 4 mps 751 mmHg 84%
    17:00 -4°C° 0 mm 4 mps 751 mmHg 84%
    18:00 -4°C° 0 mm 4 mps 751 mmHg 84%
    19:00 -4°C° 0 mm 4 mps 751 mmHg 83%
    20:00 -4°C° 0 mm 4 mps 752 mmHg 83%
    21:00 -4°C° 0 mm 4 mps 752 mmHg 82%
    22:00 -4°C° 0 mm 4 mps 752 mmHg 82%
    23:00 -4°C° 0 mm 4 mps 753 mmHg 82%

    19 December, Tuesday

    Time Temperature Precipitation Wind Pressure Humidity
    00:00 -4°C° 0 mm 4 mps 753 mmHg 81%
    01:00 -4°C° 0 mm 4 mps 753 mmHg 80%
    02:00 -4°C° 0 mm 4 mps 753 mmHg 79%
    03:00 -4°C° 0 mm 4 mps 754 mmHg 78%
    04:00 -4°C° 0 mm 4 mps 754 mmHg 77%
    05:00 -4°C° 0 mm 4 mps 754 mmHg 76%
    06:00 -4°C° 0 mm 4 mps 754 mmHg 77%
    07:00 -4°C° 0 mm 4 mps 755 mmHg 77%
    08:00 -4°C° 0 mm 4 mps 755 mmHg 77%
    09:00 -4°C° 0 mm 4 mps 755 mmHg 77%
    10:00 -3°C° 0 mm 4 mps 755 mmHg 77%
    11:00 -3°C° 0 mm 4 mps 756 mmHg 77%
    12:00 -3°C° 0 mm 4 mps 756 mmHg 76%
    13:00 -3°C° 0 mm 4 mps 756 mmHg 76%
    14:00 -3°C° 0 mm 4 mps 755 mmHg 75%
    15:00 -4°C° 0 mm 4 mps 756 mmHg 78%
    16:00 -4°C° 0 mm 3 mps 756 mmHg 81%
    17:00 -5°C° 0 mm 3 mps 756 mmHg 84%
    18:00 -5°C° 0 mm 3 mps 756 mmHg 85%
    19:00 -5°C° 0 mm 3 mps 756 mmHg 87%
    20:00 -5°C° 0 mm 3 mps 756 mmHg 88%
    21:00 -5°C° 0 mm 3 mps 756 mmHg 87%
    22:00 -4°C° 0 mm 3 mps 756 mmHg 87%
    23:00 -4°C° 0 mm 3 mps 757 mmHg 86%

    20 December, Wednesday

    Time Temperature Precipitation Wind Pressure Humidity
    00:00 -4°C° 0 mm 3 mps 757 mmHg 87%
    01:00 -3°C° 0 mm 2 mps 756 mmHg 88%
    02:00 -3°C° 0 mm 2 mps 756 mmHg 88%
    03:00 -3°C° 0 mm 2 mps 756 mmHg 89%
    04:00 -4°C° 0 mm 2 mps 756 mmHg 89%
    05:00 -4°C° 0 mm 2 mps 756 mmHg 89%
    06:00 -4°C° 0 mm 2 mps 756 mmHg 90%
    07:00 -4°C° 0 mm 2 mps 757 mmHg 90%
    08:00 -4°C° 0 mm 2 mps 757 mmHg 90%
    09:00 -4°C° 0 mm 2 mps 757 mmHg 89%
    10:00 -3°C° 0 mm 2 mps 757 mmHg 87%
    11:00 -3°C° 0 mm 2 mps 757 mmHg 86%
    12:00 -3°C° 0 mm 2 mps 757 mmHg 85%
    13:00 -3°C° 0 mm 2 mps 756 mmHg 85%
    14:00 -3°C° 0 mm 2 mps 756 mmHg 84%
    15:00 -3°C° 0.1 mm 2 mps 756 mmHg 86%
    16:00 -3°C° 0.1 mm 2 mps 756 mmHg 87%
    17:00 -3°C° 0.1 mm 2 mps 756 mmHg 89%
    18:00 -3°C° 0 mm 2 mps 756 mmHg 90%
    19:00 -3°C° 0 mm 2 mps 756 mmHg 90%
    20:00 -3°C° 0 mm 2 mps 756 mmHg 91%
    21:00 -3°C° 0 mm 2 mps 756 mmHg 91%
    22:00 -3°C° 0 mm 2 mps 756 mmHg 91%
    23:00 -1°C° 0 mm 1 mps 756 mmHg 91%

    21 December, Thursday

    Time Temperature Precipitation Wind Pressure Humidity
    00:00 -1°C° 0 mm 1 mps 756 mmHg 92%
    01:00 -3°C° 0 mm 2 mps 756 mmHg 92%
    02:00 -3°C° 0 mm 2 mps 755 mmHg 92%
    03:00 -2°C° 0 mm 1 mps 755 mmHg 92%
    04:00 -2°C° 0 mm 1 mps 755 mmHg 93%
    05:00 -2°C° 0 mm 1 mps 755 mmHg 93%
    06:00 -2°C° 0 mm 1 mps 755 mmHg 93%
    07:00 -4°C° 0 mm 2 mps 754 mmHg 94%
    08:00 -5°C° 0 mm 2 mps 754 mmHg 94%
    09:00 -4°C° 0 mm 2 mps 754 mmHg 91%
    10:00 -4°C° 0 mm 2 mps 754 mmHg 88%
    11:00 -3°C° 0 mm 2 mps 754 mmHg 85%
    12:00 -4°C° 0 mm 3 mps 753 mmHg 83%
    13:00 -4°C° 0 mm 3 mps 753 mmHg 80%
    14:00 -4°C° 0 mm 3 mps 752 mmHg 78%
    15:00 -4°C° 0 mm 3 mps 752 mmHg 79%
    16:00 -4°C° 0 mm 3 mps 752 mmHg 79%
    17:00 -5°C° 0 mm 3 mps 751 mmHg 80%
    18:00 -4°C° 0 mm 4 mps 751 mmHg 79%
    19:00 -4°C° 0 mm 4 mps 750 mmHg 78%
    20:00 -4°C° 0 mm 4 mps 749 mmHg 77%
    21:00 -4°C° 0.1 mm 4 mps 749 mmHg 79%
    22:00 -5°C° 0.1 mm 5 mps 748 mmHg 81%
    23:00 -5°C° 0.1 mm 5 mps 747 mmHg 84%
    Show more